Location: Tofino
(49.1330°N, 125.9000°W)
Time: 07:40:42
(UTC-07:00)

Amateur Radio Satellites - All Passes

Search period start: 19 October 2017 07:10
Search period end: 20 October 2017 07:10
Location: Tofino, 49.1330°N, 125.9000°W

Satellite Date Start Highest point End Downlink Frequencies (MHz)
Time Altitude Azimuth
XW-2C 19 Oct 07:17:12 07:20:49 44° 99° (E) 07:24:23 145.795 - 145.815
SO-50 19 Oct 07:19:59 07:23:15 20° 113° (ESE) 07:26:32 436.795
O/OREOS (USA 219) 19 Oct 07:25:47 07:30:24 74° 246° (WSW) 07:34:59 437.305
NO-84 19 Oct 07:34:56 07:38:51 36° 353° (N) 07:42:33 435.350 FM
DOVE 4 19 Oct 07:35:22 07:39:52 39° 292° (WNW) 07:44:35 437.250
CUTE 1.7 + AOD 2 19 Oct 07:36:43 07:39:40 18° 91° (E) 07:42:37 437.475
SEEDS 19 Oct 07:46:54 07:49:17 15° 89° (E) 07:51:41 437.485
FO-29 19 Oct 07:55:09 07:59:07 22° 55° (NE) 08:03:20 435.910
RS-15 19 Oct 08:00:10 08:11:44 44° 21° (NNE) 08:22:46 29.354- 29.394
XW-2F 19 Oct 08:03:20 08:07:01 58° 287° (WNW) 08:10:40 145.980 - 146.000
KAITUO 1B 19 Oct 08:03:50 08:07:31 72° 287° (WNW) 08:11:11 145.475/437.950
LilacSat-2 19 Oct 08:05:44 08:09:23 48° 288° (WNW) 08:13:00 437.200
STRAND 1 19 Oct 08:08:42 08:13:49 68° 257° (WSW) 08:18:59 437.568
HO-68 19 Oct 08:09:32 08:16:22 44° 98° (E) 08:23:10 435.675
CUTE-I 19 Oct 08:14:24 08:19:47 77° 287° (WNW) 08:25:09 437.470
XW-2D 19 Oct 08:14:48 08:18:19 39° 290° (WNW) 08:21:49 145.860 - 145.880
AAUSAT CUBESAT 2 19 Oct 08:15:06 08:17:10 13° 88° (E) 08:19:12 437.432
PCSat 19 Oct 08:19:32 08:22:47 16° 105° (ESE) 08:26:01 145.827
NUDT-PHONESAT 19 Oct 08:20:23 08:23:56 47° 289° (WNW) 08:27:27 437.300
CUBEBUG 2 19 Oct 08:22:36 08:26:52 34° 95° (E) 08:31:01 437.445
YUBILEINY 19 Oct 08:22:54 08:27:00 14° 70° (ENE) 08:31:07 435.215
AO-73 19 Oct 08:25:40 08:26:06 10° 84° (E) 08:26:33 145.935
XW-2B 19 Oct 08:28:22 08:31:41 30° 292° (WNW) 08:34:58 145.730 - 145.750
XW-2A 19 Oct 08:40:58 08:43:55 27° 96° (E) 08:46:49 145.665 - 145.685
ZACube-1 19 Oct 08:44:40 08:47:46 18° 90° (E) 08:50:48 437.345
AO-7 19 Oct 08:47:11 08:50:42 13° 330° (NNW) 08:54:13 .
XW-2C 19 Oct 08:52:06 08:54:42 18° 297° (WNW) 08:57:17 145.795 - 145.815
SO-50 19 Oct 08:58:49 09:03:16 65° 313° (NW) 09:07:47 436.795
UWE-3 19 Oct 09:03:20 09:07:47 49° 99° (E) 09:12:05 435.000/436.395/437.385
UNISAT 6 19 Oct 09:06:32 09:10:04 22° 61° (ENE) 09:13:39 437.425
CUTE 1.7 + AOD 2 19 Oct 09:11:43 09:15:48 50° 289° (WNW) 09:19:51 437.475
NO-84 19 Oct 09:13:00 09:16:54 42° 14° (NNE) 09:20:31 435.350 FM
TIGRISAT 19 Oct 09:21:15 09:25:09 27° 63° (ENE) 09:29:04 435.000
SEEDS 19 Oct 09:21:16 09:25:23 62° 287° (WNW) 09:29:30 437.485
Oscar 11 19 Oct 09:23:17 09:26:58 27° 94° (E) 09:30:37 .
FO-29 19 Oct 09:38:26 09:43:38 69° 258° (WSW) 09:49:19 435.910
AAUSAT CUBESAT 2 19 Oct 09:48:58 09:53:04 68° 287° (WNW) 09:57:10 437.432
DELFI C3 19 Oct 09:54:45 09:56:40 13° 89° (E) 09:58:34 145.870
CUTE-I 19 Oct 09:56:01 09:58:59 15° 307° (NW) 10:01:58 437.470
HO-68 19 Oct 09:57:21 10:04:09 47° 298° (WNW) 10:10:56 435.675
AO-73 19 Oct 09:58:39 10:03:05 85° 101° (E) 10:07:23 145.935
CUBEBUG 2 19 Oct 09:59:15 10:03:27 33° 294° (WNW) 10:07:32 437.445
PCSat 19 Oct 09:59:59 10:05:25 89° 119° (ESE) 10:10:53 145.827
YUBILEINY 19 Oct 10:13:25 10:21:56 64° 92° (E) 10:30:32 435.215
RS-15 19 Oct 10:13:44 10:25:54 88° 53° (NE) 10:37:21 29.354- 29.394
XW-2A 19 Oct 10:13:53 10:16:30 21° 294° (WNW) 10:19:06 145.665 - 145.685
ZACube-1 19 Oct 10:20:04 10:24:24 54° 289° (WNW) 10:28:37 437.345
PRISM 19 Oct 10:33:30 10:37:30 62° 72° (ENE) 10:41:32 437.425
AIST 2D 19 Oct 10:39:05 10:41:20 16° 64° (ENE) 10:43:36 435.315
UWE-3 19 Oct 10:40:22 10:43:55 23° 298° (WNW) 10:47:25 435.000/436.395/437.385
SO-50 19 Oct 10:41:25 10:44:34 18° 335° (NNW) 10:47:46 436.795
UNISAT 6 19 Oct 10:41:50 10:46:24 56° 260° (W) 10:51:04 437.425
QB50P2 19 Oct 10:44:41 10:46:26 12° 56° (ENE) 10:48:12 145.880/145.840
NANOSAT C BR1 19 Oct 10:49:38 10:50:57 11° 55° (NE) 10:52:17 145.865
NO-84 19 Oct 10:50:36 10:54:29 65° 214° (SW) 10:58:02 435.350 FM
EO-88 19 Oct 10:55:36 10:58:50 29° 96° (E) 11:02:03 145.990 - 145.960
TIGRISAT 19 Oct 10:57:10 11:01:37 44° 262° (W) 11:06:08 435.000
Oscar 11 19 Oct 10:59:14 11:03:10 35° 292° (WNW) 11:07:05 .
DUCHIFAT 1 19 Oct 11:00:26 11:02:17 13° 57° (ENE) 11:04:09 145.980
Max Valier Satellite 19 Oct 11:02:29 11:06:05 48° 99° (E) 11:09:38 145.860
nSIGHT-1 19 Oct 11:27:47 11:30:31 26° 144° (SE) 11:33:16 .
DELFI C3 19 Oct 11:27:54 11:31:50 65° 287° (WNW) 11:35:45 145.870
AO-73 19 Oct 11:36:27 11:38:39 14° 303° (WNW) 11:40:51 145.935
PCSat 19 Oct 11:45:08 11:49:32 24° 326° (NW) 11:53:57 145.827
HO-68 19 Oct 11:47:08 11:50:12 13° 321° (NW) 11:53:16 435.675
LO-87 19 Oct 11:49:19 11:51:54 18° 92° (E) 11:54:28 145.935 - 145.965
EO-79 19 Oct 11:52:53 11:56:57 45° 70° (ENE) 12:01:04 145.935-145.965
POLYITAN 1 19 Oct 11:57:13 12:01:21 50° 70° (ENE) 12:05:32 437.675
ISS 19 Oct 11:57:21 12:00:24 39° 149° (SSE) 12:03:29 437.550
AIST 2D 19 Oct 12:10:52 12:14:13 42° 261° (W) 12:17:36 435.315
PRISM 19 Oct 12:10:58 12:13:11 14° 270° (W) 12:15:25 437.425
YUBILEINY 19 Oct 12:11:33 12:19:20 35° 296° (WNW) 12:27:13 435.215
Oscar 19 19 Oct 12:12:09 12:14:52 14° 53° (NE) 12:17:35 437.125/150
M-CUBED/EXP-1 PRIME 19 Oct 12:17:00 12:17:40 10° 53° (NE) 12:18:21 437.505
QB50P2 19 Oct 12:17:16 12:21:32 86° 75° (ENE) 12:25:52 145.880/145.840
BEESAT 3 19 Oct 12:18:33 12:20:14 12° 110° (ESE) 12:21:56 437.485
NANOSAT C BR1 19 Oct 12:21:39 12:25:55 79° 74° (ENE) 12:30:13 145.865
SO-50 19 Oct 12:25:16 12:26:49 11° 360° (N) 12:28:24 436.795
AO-7 19 Oct 12:25:59 12:28:40 12° 26° (NNE) 12:31:21 .
RS-15 19 Oct 12:27:12 12:36:54 31° 257° (WSW) 12:46:14 29.354- 29.394
EO-88 19 Oct 12:29:26 12:32:23 24° 294° (WNW) 12:35:19 145.990 - 145.960
NO-84 19 Oct 12:29:56 12:31:05 11° 235° (SW) 12:32:12 435.350 FM
DUCHIFAT 1 19 Oct 12:33:02 12:37:17 90° 109° (ESE) 12:41:35 145.980
Gurwin Techsat 1B 19 Oct 12:34:17 12:37:30 16° 54° (NE) 12:40:43 435.225
Max Valier Satellite 19 Oct 12:37:13 12:39:33 16° 298° (WNW) 12:41:53 145.860
BUGSAT 1 19 Oct 12:45:29 12:49:19 36° 67° (ENE) 12:53:13 437.445
VELOX 1 19 Oct 12:46:51 12:47:47 11° 86° (E) 12:48:43 145.980
ESTCUBE 1 19 Oct 12:49:53 12:54:18 57° 101° (E) 12:58:43 437.505/2401.250
nSIGHT-1 19 Oct 13:03:23 13:06:35 78° 341° (NNW) 13:09:48 .
LO-87 19 Oct 13:22:03 13:25:28 38° 290° (WNW) 13:28:51 145.935 - 145.965
EO-79 19 Oct 13:29:40 13:32:56 21° 268° (W) 13:36:13 145.935-145.965
PCSat 19 Oct 13:32:52 13:34:59 12° 352° (N) 13:37:05 145.827
ISS 19 Oct 13:33:34 13:36:48 64° 348° (NNW) 13:40:04 437.550
POLYITAN 1 19 Oct 13:34:18 13:37:24 19° 269° (W) 13:40:33 437.675
BEESAT 2 19 Oct 13:34:55 13:38:04 23° 115° (ESE) 13:41:16 435.950
SPROUT 19 Oct 13:43:36 13:47:51 54° 100° (E) 13:52:03 437.525
Oscar 19 19 Oct 13:48:13 13:53:23 77° 72° (ENE) 13:58:33 437.125/150
M-CUBED/EXP-1 PRIME 19 Oct 13:48:18 13:51:40 74° 251° (WSW) 13:54:57 437.505
BEESAT 3 19 Oct 13:53:08 13:57:09 87° 312° (NW) 14:01:13 437.485
DX 1 19 Oct 13:55:17 13:57:36 14° 89° (E) 13:59:53 434.975-435.025
QB50P2 19 Oct 13:56:37 13:57:57 11° 273° (W) 13:59:17 145.880/145.840
NANOSAT C BR1 19 Oct 14:00:23 14:02:11 12° 273° (W) 14:03:58 145.865
SO-50 19 Oct 14:05:54 14:09:05 18° 25° (NNE) 14:12:17 436.795
Gurwin Techsat 1B 19 Oct 14:11:23 14:16:42 86° 74° (ENE) 14:22:04 435.225
AO-7 19 Oct 14:11:49 14:18:58 34° 51° (NE) 14:26:09 .
DUCHIFAT 1 19 Oct 14:12:39 14:13:35 11° 274° (W) 14:14:32 145.980
50 SAT 19 Oct 14:19:39 14:22:25 24° 96° (E) 14:25:11 437.505
VELOX 1 19 Oct 14:20:27 14:24:55 85° 106° (ESE) 14:29:22 145.980
UKube-1 19 Oct 14:21:08 14:23:53 16° 90° (E) 14:26:37 .
BUGSAT 1 19 Oct 14:21:13 14:24:44 26° 266° (W) 14:28:20 437.445
ITAMSAT 1 19 Oct 14:21:25 14:24:22 15° 53° (NE) 14:27:20 435.822/435.867
AO-85 19 Oct 14:21:27 14:25:05 40° 121° (ESE) 14:28:52 145.980
ESTCUBE 1 19 Oct 14:27:29 14:30:44 20° 299° (WNW) 14:33:59 437.505/2401.250
nSIGHT-1 19 Oct 14:39:56 14:43:05 52° 3° (N) 14:46:14 .
ISS 19 Oct 15:10:18 15:13:31 57° 8° (N) 15:16:46 437.550
BEESAT 2 19 Oct 15:11:37 15:15:32 50° 315° (NW) 15:19:31 435.950
PCSat 19 Oct 15:17:51 15:20:50 15° 19° (NNE) 15:23:48 145.827
SPROUT 19 Oct 15:20:17 15:23:22 20° 299° (WNW) 15:26:28 437.525
BEESAT 19 Oct 15:22:00 15:22:52 10° 85° (E) 15:23:42 436.000
DX 1 19 Oct 15:29:54 15:34:17 73° 286° (WNW) 15:38:38 434.975-435.025
Oscar 19 19 Oct 15:30:02 15:33:18 17° 271° (W) 15:36:34 437.125/150
BEESAT 3 19 Oct 15:32:23 15:35:17 19° 329° (NNW) 15:38:12 437.485
SO-50 19 Oct 15:45:52 15:50:25 62° 47° (NE) 15:55:02 436.795
50 SAT 19 Oct 15:51:59 15:54:41 24° 293° (WNW) 15:57:23 437.505
Gurwin Techsat 1B 19 Oct 15:54:16 15:57:21 15° 273° (W) 16:00:28 435.225
UKube-1 19 Oct 15:56:01 16:00:18 61° 288° (WNW) 16:04:33 .
ITAMSAT 1 19 Oct 15:57:51 16:03:03 82° 74° (ENE) 16:08:18 435.822/435.867
VELOX 1 19 Oct 15:58:24 16:00:44 14° 303° (WNW) 16:03:05 145.980
AO-85 19 Oct 16:02:06 16:05:35 30° 322° (NW) 16:09:14 145.980
AO-7 19 Oct 16:02:53 16:11:11 73° 253° (WSW) 16:19:30 .
nSIGHT-1 19 Oct 16:16:17 16:19:29 77° 205° (SSW) 16:22:42 .
MOZHAYETS 4 19 Oct 16:20:03 16:24:24 41° 97° (E) 16:28:43
CUBESAT XI-V 19 Oct 16:30:10 16:32:28 14° 87° (E) 16:34:45 437.345
ITUPSAT 1 19 Oct 16:40:31 16:45:15 54° 101° (E) 16:49:56 437.325
ISS 19 Oct 16:46:49 16:50:03 55° 207° (SSW) 16:53:15 437.550
BEESAT 2 19 Oct 16:51:58 16:54:12 14° 336° (NNW) 16:56:26 435.950
BEESAT 19 Oct 16:56:37 17:01:27 77° 104° (ESE) 17:06:13 436.000
HO-68 19 Oct 16:59:34 17:02:56 14° 40° (NE) 17:06:19 435.675
PCSat 19 Oct 17:00:45 17:05:49 38° 43° (NE) 17:10:51 145.827
DOVE 4 19 Oct 17:07:28 17:11:27 44° 69° (ENE) 17:15:39 437.250
DX 1 19 Oct 17:08:28 17:09:40 11° 306° (NW) 17:10:53 434.975-435.025
XW-2F 19 Oct 17:15:50 17:17:35 13° 60° (ENE) 17:19:20 145.980 - 146.000
KAITUO 1B 19 Oct 17:16:46 17:17:25 10° 58° (ENE) 17:18:03 145.475/437.950
LilacSat-2 19 Oct 17:18:30 17:20:49 16° 62° (ENE) 17:23:08 437.200
XW-2D 19 Oct 17:26:32 17:29:08 18° 63° (ENE) 17:31:44 145.860 - 145.880
SO-50 19 Oct 17:26:58 17:30:32 22° 245° (WSW) 17:34:08 436.795
NUDT-PHONESAT 19 Oct 17:30:57 17:32:56 14° 61° (ENE) 17:34:55 437.300
XW-2B 19 Oct 17:39:28 17:42:28 23° 65° (ENE) 17:45:29 145.730 - 145.750
ITAMSAT 1 19 Oct 17:40:02 17:43:10 16° 272° (W) 17:46:19 435.822/435.867
AO-85 19 Oct 17:46:00 17:47:20 11° 347° (NNW) 17:48:40 145.980
nSIGHT-1 19 Oct 17:53:13 17:55:22 17° 221° (SW) 17:57:32 .
KKS-1 19 Oct 17:53:44 17:57:29 26° 94° (E) 18:01:14 437.445
MOZHAYETS 4 19 Oct 17:57:33 18:01:23 27° 297° (WNW) 18:05:13
AO-7 19 Oct 18:00:22 18:05:25 17° 274° (W) 18:10:29 .
CUTE-I 19 Oct 18:00:54 18:05:52 42° 66° (ENE) 18:10:54 437.470
XW-2C 19 Oct 18:02:00 18:05:33 38° 70° (ENE) 18:09:06 145.795 - 145.815
CUBESAT XI-V 19 Oct 18:05:49 18:10:26 80° 286° (WNW) 18:15:01 437.345
ITUPSAT 1 19 Oct 18:18:59 18:22:45 23° 300° (WNW) 18:26:30 437.325
YUBILEINY 19 Oct 18:24:43 18:26:25 11° 39° (NE) 18:28:07 435.215
ISS 19 Oct 18:24:48 18:25:57 11° 225° (SW) 18:27:05 437.550
STARS 19 Oct 18:28:56 18:32:36 25° 94° (E) 18:36:14 437.465
UWE-3 19 Oct 18:31:30 18:32:31 11° 53° (NE) 18:33:32 435.000/436.395/437.385
CUTE 1.7 + AOD 2 19 Oct 18:33:06 18:36:25 23° 64° (ENE) 18:39:43 437.475
BEESAT 19 Oct 18:35:33 18:38:39 17° 303° (WNW) 18:41:45 436.000
HO-68 19 Oct 18:42:14 18:49:04 50° 63° (ENE) 18:55:56 435.675
SEEDS 19 Oct 18:42:19 18:45:12 18° 62° (ENE) 18:48:05 437.485
PCSat 19 Oct 18:44:10 18:49:21 47° 244° (WSW) 18:54:30 145.827
DOVE 4 19 Oct 18:46:13 18:49:26 21° 269° (W) 18:52:46 437.250
KAITUO 1B 19 Oct 18:47:02 18:50:47 88° 256° (WSW) 18:54:32 145.475/437.950
XW-2F 19 Oct 18:47:26 18:51:12 69° 258° (WSW) 18:54:58 145.980 - 146.000
LilacSat-2 19 Oct 18:50:56 18:54:42 55° 260° (W) 18:58:29 437.200
BEESAT 3 19 Oct 18:52:34 18:53:47 11° 17° (NNE) 18:55:00 437.485
XW-2D 19 Oct 18:59:20 19:03:00 46° 261° (W) 19:06:40 145.860 - 145.880
NUDT-PHONESAT 19 Oct 19:02:41 19:06:21 60° 259° (W) 19:10:02 437.300
AAUSAT CUBESAT 2 19 Oct 19:09:01 19:11:33 16° 61° (ENE) 19:14:06 437.432
XW-2B 19 Oct 19:13:00 19:16:29 34° 263° (W) 19:19:59 145.730 - 145.750
XW-2A 19 Oct 19:16:05 19:18:38 20° 65° (ENE) 19:21:10 145.665 - 145.685
AO-73 19 Oct 19:23:25 19:26:11 16° 59° (ENE) 19:28:55 145.935
CUBEBUG 2 19 Oct 19:23:54 19:28:22 45° 69° (ENE) 19:32:54 437.445
AO-85 19 Oct 19:28:28 19:29:40 11° 12° (NNE) 19:30:53 145.980
KKS-1 19 Oct 19:29:59 19:34:11 40° 292° (WNW) 19:38:23 437.445
XW-2C 19 Oct 19:37:04 19:39:53 19° 268° (W) 19:42:42 145.795 - 145.815
CUTE-I 19 Oct 19:41:18 19:46:02 32° 265° (W) 19:50:49 437.470
ZACube-1 19 Oct 19:43:45 19:47:31 26° 64° (ENE) 19:51:17 437.345
CUBESAT XI-V 19 Oct 19:45:07 19:47:03 13° 305° (NW) 19:48:58 437.345
UWE-3 19 Oct 20:03:26 20:08:02 64° 73° (ENE) 20:12:42 435.000/436.395/437.385
STARS 19 Oct 20:04:54 20:09:05 41° 292° (WNW) 20:13:15 437.465
CUTE 1.7 + AOD 2 19 Oct 20:07:59 20:12:01 42° 262° (W) 20:16:04 437.475
BEESAT 2 19 Oct 20:10:49 20:13:10 15° 25° (NNE) 20:15:29 435.950
STRAND 1 19 Oct 20:15:12 20:19:46 31° 95° (E) 20:24:18 437.568
SEEDS 19 Oct 20:16:26 20:20:31 54° 260° (W) 20:24:38 437.485
YUBILEINY 19 Oct 20:18:17 20:26:28 40° 67° (ENE) 20:34:37 435.215
Oscar 11 19 Oct 20:21:39 20:25:35 34° 67° (ENE) 20:29:31 .
BEESAT 3 19 Oct 20:28:53 20:32:31 32° 40° (NE) 20:36:06 437.485
HO-68 19 Oct 20:30:16 20:36:56 41° 263° (W) 20:43:40 435.675
AAUSAT CUBESAT 2 19 Oct 20:42:30 20:46:34 62° 259° (WSW) 20:50:39 437.432
FO-29 19 Oct 20:42:40 20:46:49 16° 86° (E) 20:51:11 435.910
DELFI C3 19 Oct 20:44:06 20:46:12 14° 60° (ENE) 20:48:18 145.870
XW-2A 19 Oct 20:48:03 20:51:10 32° 263° (W) 20:54:16 145.665 - 145.685
AO-73 19 Oct 20:57:15 21:01:50 78° 259° (WSW) 21:06:25 145.935
CUBEBUG 2 19 Oct 21:01:16 21:05:09 25° 268° (W) 21:09:06 437.445
AO-85 19 Oct 21:07:48 21:11:30 26° 35° (NE) 21:15:26 145.980
ZACube-1 19 Oct 21:19:11 21:23:34 44° 262° (W) 21:27:58 437.345
EO-88 19 Oct 21:37:04 21:40:04 24° 66° (ENE) 21:43:05 145.990 - 145.960
UWE-3 19 Oct 21:41:46 21:44:55 18° 271° (W) 21:48:05 435.000/436.395/437.385
O/OREOS (USA 219) 19 Oct 21:41:50 21:46:19 59° 112° (ESE) 21:50:52 437.305
Max Valier Satellite 19 Oct 21:44:47 21:48:17 39° 70° (ENE) 21:51:48 145.860
BEESAT 2 19 Oct 21:47:45 21:51:46 54° 46° (NE) 21:55:42 435.950
STRAND 1 19 Oct 21:54:13 21:59:05 42° 293° (WNW) 22:03:55 437.568
Oscar 11 19 Oct 21:58:00 22:01:45 28° 266° (W) 22:05:31 .
BEESAT 3 19 Oct 22:06:26 22:10:08 37° 240° (WSW) 22:13:44 437.485
YUBILEINY 19 Oct 22:15:07 22:23:38 57° 270° (W) 22:32:09 435.215
DELFI C3 19 Oct 22:16:35 22:20:28 66° 258° (WSW) 22:24:23 145.870
ESTCUBE 1 19 Oct 22:19:25 22:21:23 13° 56° (NE) 22:23:21 437.505/2401.250
FO-29 19 Oct 22:26:00 22:32:45 76° 104° (ESE) 22:40:15 435.910
LO-87 19 Oct 22:29:37 22:31:45 15° 62° (ENE) 22:33:54 145.935 - 145.965
UNISAT 6 19 Oct 22:29:46 22:33:34 24° 92° (E) 22:37:17 437.425
AO-73 19 Oct 22:38:26 22:38:48 10° 275° (W) 22:39:10 145.935
TIGRISAT 19 Oct 22:44:32 22:48:40 31° 95° (E) 22:52:41 435.000
AO-85 19 Oct 22:47:49 22:52:16 67° 234° (SW) 22:57:03 145.980
EO-88 19 Oct 23:10:25 23:13:37 29° 264° (W) 23:16:51 145.990 - 145.960
Max Valier Satellite 19 Oct 23:19:36 23:22:16 18° 268° (W) 23:24:57 145.860
O/OREOS (USA 219) 19 Oct 23:22:28 23:26:07 23° 312° (NW) 23:29:47 437.305
BEESAT 2 19 Oct 23:26:07 23:29:10 21° 245° (WSW) 23:32:11 435.950
AIST 2D 19 Oct 23:33:37 23:34:20 10° 88° (E) 23:35:04 435.315
PRISM 19 Oct 23:45:32 23:49:36 56° 101° (ESE) 23:53:40 437.425
VELOX 1 19 Oct 23:46:52 23:49:44 17° 59° (ENE) 23:52:35 145.980
ESTCUBE 1 19 Oct 23:52:58 23:57:29 84° 73° (ENE) 00:01:59 437.505/2401.250
QB50P2 20 Oct 00:00:22 00:01:26 11° 86° (E) 00:02:30 145.880/145.840
LO-87 20 Oct 00:01:16 00:04:46 51° 260° (W) 00:08:20 145.935 - 145.965
UNISAT 6 20 Oct 00:06:02 00:10:28 44° 291° (WNW) 00:14:47 437.425
FO-29 20 Oct 00:11:53 00:17:19 28° 301° (WNW) 00:23:14 435.910
DUCHIFAT 1 20 Oct 00:15:11 00:16:18 11° 87° (E) 00:17:24 145.980
YUBILEINY 20 Oct 00:15:17 00:18:21 12° 292° (WNW) 00:21:26 435.215
TIGRISAT 20 Oct 00:21:08 00:25:23 35° 294° (WNW) 00:29:31 435.000
AO-85 20 Oct 00:31:09 00:31:58 10° 251° (WSW) 00:32:48 145.980
SPROUT 20 Oct 00:40:18 00:44:34 68° 72° (ENE) 00:48:51 437.525
RS-15 20 Oct 00:41:58 00:52:44 38° 107° (ESE) 01:03:27 29.354- 29.394
50 SAT 20 Oct 00:52:33 00:54:44 17° 64° (ENE) 00:56:55 437.505
DX 1 20 Oct 00:54:14 00:57:31 21° 61° (ENE) 01:00:48 434.975-435.025
AIST 2D 20 Oct 01:04:29 01:07:55 62° 286° (WNW) 01:11:21 435.315
EO-79 20 Oct 01:08:47 01:12:56 47° 99° (E) 01:17:02 145.935-145.965
POLYITAN 1 20 Oct 01:13:20 01:17:33 52° 100° (E) 01:21:42 437.675
UKube-1 20 Oct 01:19:04 01:22:32 24° 62° (ENE) 01:25:59 .
VELOX 1 20 Oct 01:21:21 01:25:41 66° 257° (WSW) 01:30:06 145.980
PRISM 20 Oct 01:21:43 01:24:29 18° 299° (WNW) 01:27:16 437.425
ESTCUBE 1 20 Oct 01:32:59 01:34:53 12° 273° (W) 01:36:48 437.505/2401.250
QB50P2 20 Oct 01:33:33 01:37:52 89° 284° (WNW) 01:42:08 145.880/145.840
NANOSAT C BR1 20 Oct 01:37:17 01:41:34 82° 101° (ESE) 01:45:48 145.865
DUCHIFAT 1 20 Oct 01:48:18 01:52:35 87° 281° (WNW) 01:56:48 145.980
MOZHAYETS 4 20 Oct 01:52:59 01:53:45 10° 53° (NE) 01:54:32
Oscar 19 20 Oct 01:56:24 02:00:06 20° 90° (E) 02:03:45 437.125/150
BUGSAT 1 20 Oct 01:58:01 02:01:54 34° 96° (E) 02:05:44 437.445
ITUPSAT 1 20 Oct 02:15:38 02:18:36 16° 56° (NE) 02:21:34 437.325
SPROUT 20 Oct 02:18:35 02:20:55 14° 271° (W) 02:23:17 437.525
50 SAT 20 Oct 02:23:47 02:26:48 35° 262° (W) 02:29:52 437.505
Gurwin Techsat 1B 20 Oct 02:23:53 02:28:14 25° 92° (E) 02:32:32 435.225
DX 1 20 Oct 02:29:12 02:33:24 49° 260° (W) 02:37:38 434.975-435.025
BEESAT 20 Oct 02:30:38 02:34:15 22° 60° (ENE) 02:37:52 436.000
EO-79 20 Oct 02:45:08 02:48:24 22° 298° (WNW) 02:51:39 145.935-145.965
POLYITAN 1 20 Oct 02:49:52 02:52:59 20° 299° (WNW) 02:56:05 437.675
RS-15 20 Oct 02:51:51 03:04:16 81° 311° (NW) 03:16:35 29.354- 29.394
UKube-1 20 Oct 02:54:15 02:58:20 42° 261° (W) 03:02:27 .
M-CUBED/EXP-1 PRIME 20 Oct 02:56:03 02:59:16 33° 104° (ESE) 03:02:41 437.505
QB50P2 20 Oct 03:11:09 03:12:59 13° 303° (WNW) 03:14:48 145.880/145.840
NANOSAT C BR1 20 Oct 03:14:31 03:16:40 14° 303° (WNW) 03:18:49 145.865
MOZHAYETS 4 20 Oct 03:25:25 03:30:00 63° 72° (ENE) 03:34:37
DUCHIFAT 1 20 Oct 03:25:50 03:27:34 12° 304° (WNW) 03:29:16 145.980
BUGSAT 1 20 Oct 03:33:31 03:37:10 28° 295° (WNW) 03:40:46 437.445
Oscar 19 20 Oct 03:34:47 03:39:53 66° 289° (WNW) 03:44:57 437.125/150
CUBESAT XI-V 20 Oct 03:36:49 03:40:23 23° 62° (ENE) 03:43:58 437.345
NO-84 20 Oct 03:45:38 03:48:59 22° 132° (SE) 03:52:18 435.350 FM
ITUPSAT 1 20 Oct 03:50:59 03:55:48 83° 254° (WSW) 04:00:40 437.325
AO-7 20 Oct 04:00:09 04:07:14 30° 93° (E) 04:14:17 .
Gurwin Techsat 1B 20 Oct 04:03:18 04:08:30 55° 291° (WNW) 04:13:41 435.225
BEESAT 20 Oct 04:06:55 04:11:38 59° 258° (WSW) 04:16:24 436.000
ITAMSAT 1 20 Oct 04:07:13 04:11:09 21° 91° (E) 04:15:02 435.822/435.867
M-CUBED/EXP-1 PRIME 20 Oct 04:30:51 04:33:36 22° 300° (WNW) 04:36:27 437.505
KKS-1 20 Oct 04:55:20 04:59:28 39° 67° (ENE) 05:03:37 437.445
DOVE 4 20 Oct 05:03:41 05:04:51 11° 85° (E) 05:06:02 437.250
MOZHAYETS 4 20 Oct 05:04:29 05:07:35 17° 270° (W) 05:10:41
RS-15 20 Oct 05:07:14 05:18:48 43° 341° (NNW) 05:30:06 29.354- 29.394
CUBESAT XI-V 20 Oct 05:12:56 05:17:27 51° 260° (W) 05:21:58 437.345
Oscar 19 20 Oct 05:16:14 05:18:16 12° 309° (NW) 05:20:17 437.125/150
NO-84 20 Oct 05:21:44 05:26:03 88° 328° (NNW) 05:30:14 435.350 FM
STARS 20 Oct 05:29:02 05:33:03 36° 67° (ENE) 05:37:08 437.465
ITUPSAT 1 20 Oct 05:32:45 05:34:23 12° 274° (W) 05:36:03 437.325
ITAMSAT 1 20 Oct 05:45:51 05:51:03 64° 290° (WNW) 05:56:13 435.822/435.867
Gurwin Techsat 1B 20 Oct 05:45:57 05:47:20 11° 311° (NW) 05:48:44 435.225
AO-7 20 Oct 05:52:26 06:00:44 74° 294° (WNW) 06:08:59 .
STRAND 1 20 Oct 05:59:40 06:01:42 12° 51° (NE) 06:03:46 437.568
O/OREOS (USA 219) 20 Oct 06:08:41 06:12:53 33° 53° (NE) 06:17:02 437.305
CUTE-I 20 Oct 06:15:43 06:17:31 12° 85° (E) 06:19:19 437.470
LilacSat-2 20 Oct 06:21:39 06:23:06 12° 88° (E) 06:24:31 437.200
XW-2D 20 Oct 06:28:45 06:30:42 14° 89° (E) 06:32:39 145.860 - 145.880
KKS-1 20 Oct 06:32:24 06:36:08 26° 266° (W) 06:39:54 437.445
DOVE 4 20 Oct 06:38:21 06:43:17 73° 103° (ESE) 06:48:26 437.250
XW-2B 20 Oct 06:41:39 06:44:17 18° 92° (E) 06:46:53 145.730 - 145.750
NO-84 20 Oct 06:59:51 07:03:50 38° 350° (N) 07:07:38 435.350 FM
